Radiation Dose at Monitoring Post of Fukushima Daini Nuclear Power Station
Date,Time,MP-1(microSv/h),MP-2(microSv/h),MP-3(microSv/h),MP-4(microSv/h),MP-5(microSv/h),MP-6(microSv/h),MP-7(microSv/h),Wind Direction,Wind Velocity(m/s),Rain
2021/05/27,00:00,0.164,0.149,0.237,0.229,0.231,0.129,0.080,southwest,2.8,No
2021/05/27,00:10,0.163,0.150,0.235,0.230,0.232,0.129,0.080,southwest,2.4,No
2021/05/27,00:20,0.165,0.149,0.237,0.228,0.230,0.129,0.081,southwest,1.9,No
2021/05/27,00:30,0.164,0.149,0.236,0.231,0.232,0.129,0.080,south-southwest,1.3,No
2021/05/27,00:40,0.165,0.149,0.237,0.229,0.231,0.130,0.081,south,1.2,No
2021/05/27,00:50,0.163,0.150,0.235,0.230,0.233,0.129,0.081,south-southwest,0.9,No
2021/05/27,01:00,0.164,0.149,0.238,0.229,0.231,0.130,0.080,south,1.9,No
2021/05/27,01:10,0.165,0.150,0.235,0.230,0.233,0.129,0.081,south-southwest,2.1,No
2021/05/27,01:20,0.165,0.150,0.235,0.229,0.231,0.129,0.080,south-southwest,2.0,No
2021/05/27,01:30,0.164,0.149,0.238,0.230,0.232,0.129,0.081,south-southwest,1.8,No
2021/05/27,01:40,0.165,0.149,0.236,0.230,0.230,0.129,0.080,southwest,1.8,No
2021/05/27,01:50,0.164,0.149,0.238,0.230,0.233,0.129,0.080,south-southwest,1.4,No
2021/05/27,02:00,0.166,0.150,0.236,0.230,0.231,0.128,0.081,south-southwest,0.8,No
2021/05/27,02:10,0.165,0.150,0.237,0.230,0.232,0.129,0.080,south,1.0,No
2021/05/27,02:20,0.166,0.150,0.236,0.230,0.232,0.130,0.081,south,1.2,No
2021/05/27,02:30,0.164,0.150,0.238,0.229,0.232,0.128,0.080,south,1.2,No
2021/05/27,02:40,0.166,0.151,0.237,0.231,0.232,0.129,0.082,south,1.0,No
2021/05/27,02:50,0.164,0.149,0.238,0.230,0.233,0.130,0.081,south-southwest,1.0,No
2021/05/27,03:00,0.166,0.150,0.237,0.231,0.232,0.129,0.081,south,1.1,No
2021/05/27,03:10,0.164,0.149,0.237,0.230,0.231,0.130,0.081,south,1.0,No
2021/05/27,03:20,0.166,0.149,0.237,0.230,0.233,0.129,0.081,south,0.6,No
2021/05/27,03:30,0.165,0.149,0.236,0.228,0.231,0.129,0.081,south-southeast,1.2,No
2021/05/27,03:40,0.165,0.150,0.238,0.231,0.232,0.129,0.081,south,1.6,No
2021/05/27,03:50,0.165,0.150,0.236,0.229,0.231,0.129,0.081,south-southeast,2.0,No
2021/05/27,04:00,0.165,0.150,0.238,0.229,0.232,0.129,0.080,south,1.9,No
2021/05/27,04:10,0.164,0.149,0.236,0.230,0.231,0.129,0.080,south,1.9,No
2021/05/27,04:20,0.166,0.150,0.237,0.229,0.232,0.129,0.080,south,1.7,No
2021/05/27,04:30,0.166,0.150,0.235,0.230,0.232,0.129,0.080,southwest,0.9,No
2021/05/27,04:40,0.166,0.149,0.237,0.229,0.232,0.129,0.080,south-southwest,1.0,No
2021/05/27,04:50,0.164,0.151,0.236,0.229,0.233,0.130,0.081,south-southwest,1.3,No
2021/05/27,05:00,0.166,0.149,0.238,0.230,0.232,0.129,0.081,south,0.9,No
2021/05/27,05:10,0.165,0.150,0.236,0.230,0.232,0.130,0.081,south,0.9,No
2021/05/27,05:20,0.166,0.150,0.236,0.231,0.233,0.129,0.080,south,1.2,No
2021/05/27,05:30,0.165,0.150,0.236,0.230,0.232,0.129,0.080,south,1.7,No
2021/05/27,05:40,0.166,0.149,0.236,0.229,0.233,0.130,0.081,south,2.0,No
2021/05/27,05:50,0.164,0.151,0.236,0.230,0.231,0.129,0.080,south,2.5,No
2021/05/27,06:00,0.166,0.149,0.235,0.229,0.233,0.129,0.080,south,2.1,No
2021/05/27,06:10,0.166,0.150,0.237,0.230,0.231,0.129,0.081,south,2.1,No
2021/05/27,06:20,0.165,0.150,0.235,0.229,0.234,0.129,0.080,south,1.9,No
2021/05/27,06:30,0.165,0.151,0.238,0.231,0.232,0.130,0.082,south,1.7,No
2021/05/27,06:40,0.165,0.149,0.235,0.230,0.232,0.129,0.081,south,1.3,No
2021/05/27,06:50,0.167,0.150,0.237,0.230,0.232,0.129,0.081,south,1.6,No
2021/05/27,07:00,0.165,0.150,0.237,0.229,0.230,0.130,0.080,south,1.6,No
2021/05/27,07:10,0.166,0.151,0.237,0.230,0.232,0.129,0.081,south,2.0,No
2021/05/27,07:20,0.164,0.150,0.237,0.229,0.231,0.129,0.081,south-southeast,2.2,No
2021/05/27,07:30,0.165,0.151,0.236,0.230,0.234,0.130,0.081,south-southeast,1.8,No
2021/05/27,07:40,0.165,0.149,0.237,0.230,0.232,0.130,0.081,south,1.3,No
2021/05/27,07:50,0.166,0.151,0.237,0.228,0.231,0.129,0.081,south,1.0,No
2021/05/27,08:00,0.166,0.150,0.237,0.231,0.233,0.129,0.081,southeast,0.8,No
2021/05/27,08:10,0.165,0.151,0.236,0.228,0.230,0.130,0.081,south-southeast,0.7,No
2021/05/27,08:20,0.166,0.150,0.239,0.230,0.234,0.131,0.081,south,1.2,No
2021/05/27,08:30,0.166,0.150,0.236,0.230,0.233,0.130,0.081,south-southwest,1.5,No
2021/05/27,08:40,0.166,0.150,0.237,0.229,0.232,0.129,0.081,south-southwest,0.8,No
2021/05/27,08:50,0.165,0.151,0.236,0.231,0.234,0.128,0.081,south,0.6,No
2021/05/27,09:00,0.167,0.151,0.238,0.230,0.231,0.131,0.081,-,CALM,No
2021/05/27,09:10,0.165,0.150,0.236,0.232,0.233,0.128,0.081,-,CALM,No
2021/05/27,09:20,0.165,0.151,0.236,0.230,0.233,0.130,0.081,-,CALM,No
2021/05/27,09:30,0.166,0.150,0.238,0.230,0.231,0.129,0.080,-,CALM,No
2021/05/27,09:40,0.165,0.151,0.236,0.230,0.234,0.128,0.080,-,CALM,No
2021/05/27,09:50,0.165,0.150,0.238,0.229,0.233,0.132,0.080,-,CALM,No
2021/05/27,10:00,0.164,0.150,0.236,0.231,0.231,0.130,0.080,-,CALM,No
2021/05/27,10:10,0.166,0.149,0.238,0.228,0.234,0.129,0.080,-,CALM,No
2021/05/27,10:20,0.165,0.150,0.236,0.231,0.230,0.129,0.080,north-northeast,0.6,No
2021/05/27,10:30,0.165,0.150,0.238,0.229,0.234,0.129,0.080,north-northeast,1.1,No
2021/05/27,10:40,0.165,0.152,0.238,0.230,0.232,0.131,0.082,north-northeast,0.7,No
2021/05/27,10:50,0.167,0.150,0.237,0.231,0.232,0.130,0.081,-,CALM,Yes
2021/05/27,11:00,0.166,0.153,0.240,0.230,0.235,0.131,0.083,-,CALM,Yes
2021/05/27,11:10,0.167,0.153,0.238,0.234,0.235,0.133,0.083,-,CALM,Yes
2021/05/27,11:20,0.169,0.155,0.242,0.233,0.237,0.133,0.084,-,CALM,Yes
2021/05/27,11:30,0.170,0.155,0.241,0.237,0.237,0.137,0.088,-,CALM,Yes
2021/05/27,11:40,0.171,0.157,0.245,0.236,0.239,0.135,0.087,east-northeast,0.9,Yes
2021/05/27,11:50,0.172,0.158,0.243,0.237,0.239,0.139,0.089,east,0.9,Yes
2021/05/27,12:00,0.173,0.159,0.245,0.237,0.239,0.138,0.090,east-northeast,1.1,Yes
2021/05/27,12:10,0.175,0.161,0.245,0.238,0.241,0.140,0.091,east-northeast,1.2,Yes
2021/05/27,12:20,0.174,0.161,0.247,0.238,0.241,0.140,0.091,northeast,1.4,Yes
2021/05/27,12:30,0.175,0.162,0.246,0.239,0.241,0.140,0.092,east,0.6,Yes
2021/05/27,12:40,0.175,0.161,0.247,0.238,0.241,0.141,0.092,south-southeast,1.9,Yes
2021/05/27,12:50,0.177,0.162,0.246,0.240,0.243,0.142,0.094,south-southeast,3.2,Yes
2021/05/27,13:00,0.175,0.162,0.247,0.238,0.242,0.142,0.095,south-southeast,3.9,Yes
2021/05/27,13:10,0.176,0.161,0.245,0.240,0.242,0.142,0.094,south-southeast,4.4,Yes
2021/05/27,13:20,0.176,0.160,0.244,0.237,0.241,0.141,0.093,south-southeast,4.6,Yes
2021/05/27,13:30,0.174,0.161,0.243,0.238,0.241,0.140,0.092,south-southeast,4.5,Yes
2021/05/27,13:40,0.174,0.161,0.243,0.236,0.239,0.139,0.092,south-southeast,5.3,Yes
2021/05/27,13:50,0.173,0.159,0.243,0.236,0.240,0.138,0.090,south-southeast,6.2,Yes
2021/05/27,14:00,0.171,0.158,0.240,0.232,0.236,0.137,0.089,south,5.4,Yes
2021/05/27,14:10,0.170,0.156,0.240,0.232,0.236,0.136,0.088,south-southeast,5.7,Yes
2021/05/27,14:20,0.168,0.155,0.236,0.231,0.236,0.134,0.086,south,7.0,Yes
2021/05/27,14:30,0.167,0.153,0.236,0.229,0.235,0.133,0.086,south,6.3,No
2021/05/27,14:40,0.167,0.154,0.236,0.229,0.234,0.132,0.084,south,7.2,Yes
2021/05/27,14:50,0.167,0.152,0.236,0.230,0.233,0.132,0.085,south,7.0,Yes
2021/05/27,15:00,0.167,0.152,0.234,0.227,0.232,0.132,0.084,south-southeast,6.1,Yes
2021/05/27,15:10,0.167,0.151,0.234,0.229,0.233,0.131,0.085,south-southeast,7.3,Yes
2021/05/27,15:20,0.167,0.152,0.233,0.227,0.231,0.132,0.084,south-southeast,6.8,Yes
2021/05/27,15:30,0.166,0.151,0.233,0.227,0.231,0.132,0.085,south,7.3,Yes
2021/05/27,15:40,0.166,0.152,0.235,0.229,0.234,0.133,0.084,south,7.4,Yes
2021/05/27,15:50,0.166,0.153,0.235,0.227,0.233,0.132,0.085,south-southeast,7.1,Yes
2021/05/27,16:00,0.167,0.152,0.236,0.228,0.236,0.132,0.086,south-southeast,6.4,Yes
2021/05/27,16:10,0.167,0.152,0.236,0.229,0.232,0.133,0.086,south,6.0,Yes
2021/05/27,16:20,0.167,0.153,0.236,0.228,0.235,0.133,0.086,south,6.0,Yes
2021/05/27,16:30,0.167,0.153,0.235,0.227,0.233,0.132,0.086,south,6.4,Yes
2021/05/27,16:40,0.166,0.153,0.234,0.228,0.234,0.133,0.086,south-southwest,5.1,Yes
2021/05/27,16:50,0.167,0.154,0.235,0.227,0.234,0.133,0.086,south,5.6,Yes
2021/05/27,17:00,0.166,0.153,0.233,0.228,0.234,0.132,0.086,south,6.6,Yes
2021/05/27,17:10,0.167,0.151,0.234,0.226,0.233,0.132,0.086,south,6.3,Yes
2021/05/27,17:20,0.165,0.152,0.233,0.226,0.234,0.131,0.086,south,5.1,Yes
2021/05/27,17:30,0.165,0.152,0.233,0.225,0.234,0.132,0.086,south,3.8,Yes
2021/05/27,17:40,0.164,0.151,0.233,0.226,0.233,0.131,0.085,south,3.8,No
2021/05/27,17:50,0.164,0.151,0.232,0.226,0.233,0.131,0.084,south,3.2,No
2021/05/27,18:00,0.163,0.149,0.233,0.224,0.231,0.129,0.083,south,3.1,Yes
2021/05/27,18:10,0.162,0.149,0.230,0.225,0.232,0.129,0.083,south-southwest,3.2,No
2021/05/27,18:20,0.163,0.149,0.232,0.224,0.229,0.128,0.081,south,2.5,No
2021/05/27,18:30,0.162,0.149,0.229,0.224,0.230,0.127,0.081,south,3.2,No
2021/05/27,18:40,0.162,0.147,0.230,0.223,0.230,0.127,0.080,south,3.2,No
2021/05/27,18:50,0.159,0.147,0.228,0.224,0.229,0.126,0.079,south-southwest,3.6,No
2021/05/27,19:00,0.161,0.146,0.230,0.220,0.228,0.126,0.079,southwest,1.9,No
2021/05/27,19:10,0.161,0.147,0.229,0.224,0.229,0.126,0.078,west-southwest,1.9,No
2021/05/27,19:20,0.160,0.147,0.229,0.221,0.228,0.124,0.079,west,1.6,No
2021/05/27,19:30,0.161,0.147,0.228,0.223,0.228,0.125,0.079,southwest,1.1,No
2021/05/27,19:40,0.159,0.145,0.229,0.221,0.228,0.125,0.078,west-northwest,1.2,No
2021/05/27,19:50,0.161,0.146,0.230,0.223,0.227,0.125,0.079,northwest,0.8,No
2021/05/27,20:00,0.160,0.146,0.229,0.222,0.227,0.124,0.078,northwest,0.8,No
2021/05/27,20:10,0.161,0.146,0.229,0.221,0.227,0.125,0.079,north-northwest,1.1,No
2021/05/27,20:20,0.159,0.145,0.229,0.223,0.229,0.125,0.078,north-northwest,2.4,No
2021/05/27,20:30,0.161,0.145,0.229,0.223,0.227,0.125,0.079,north-northwest,3.2,No
2021/05/27,20:40,0.159,0.146,0.228,0.223,0.228,0.125,0.079,north-northwest,4.1,No
2021/05/27,20:50,0.159,0.146,0.229,0.223,0.228,0.126,0.079,north-northwest,4.5,No
2021/05/27,21:00,0.160,0.147,0.229,0.223,0.228,0.126,0.078,north-northwest,5.0,No
2021/05/27,21:10,0.160,0.146,0.230,0.222,0.228,0.126,0.079,north-northwest,4.5,No
2021/05/27,21:20,0.160,0.147,0.228,0.223,0.228,0.125,0.079,north,4.9,No
2021/05/27,21:30,0.160,0.146,0.231,0.222,0.227,0.126,0.078,north-northwest,3.6,No
2021/05/27,21:40,0.160,0.147,0.229,0.224,0.228,0.126,0.079,north-northwest,3.6,No
2021/05/27,21:50,0.161,0.146,0.231,0.223,0.229,0.126,0.079,north-northwest,4.1,No
2021/05/27,22:00,0.161,0.147,0.229,0.224,0.230,0.125,0.079,northwest,3.2,No
2021/05/27,22:10,0.161,0.146,0.231,0.224,0.228,0.127,0.079,north-northwest,4.0,No
2021/05/27,22:20,0.161,0.148,0.230,0.226,0.230,0.126,0.079,north-northwest,3.4,No
2021/05/27,22:30,0.161,0.147,0.230,0.223,0.228,0.127,0.079,northwest,2.3,No
2021/05/27,22:40,0.160,0.148,0.231,0.223,0.230,0.126,0.079,northwest,2.7,No
2021/05/27,22:50,0.162,0.148,0.229,0.223,0.228,0.127,0.079,northwest,2.2,No
2021/05/27,23:00,0.161,0.148,0.231,0.224,0.230,0.125,0.079,northwest,1.1,No
2021/05/27,23:10,0.162,0.147,0.230,0.223,0.228,0.126,0.079,west-southwest,0.6,No
2021/05/27,23:20,0.160,0.147,0.231,0.224,0.229,0.125,0.080,south-southwest,1.5,No
2021/05/27,23:30,0.163,0.147,0.231,0.223,0.227,0.126,0.079,south-southwest,2.7,No
2021/05/27,23:40,0.162,0.147,0.231,0.224,0.230,0.126,0.080,south-southwest,4.1,No
2021/05/27,23:50,0.161,0.147,0.230,0.225,0.229,0.126,0.079,south-southwest,4.5,No
